| time (UTC) | temp F | wind direction | speed MPH | gust MPH | rain 1hr in | rain 24hr in | rain mn in | humidity % | barometer mb |
| 20260505183028 | 87 | 263 | 0.0 | 6.0 | 0.00 | 0.00 | 0.00 | 32 | 1012.9 |
| 20260505182524 | 88 | 18 | 2.0 | 2.0 | 0.00 | 0.00 | 0.00 | 31 | 1012.9 |
| 20260505182020 | 87 | 63 | 1.0 | 4.0 | 0.00 | 0.00 | 0.00 | 30 | 1013.2 |
| 20260505181517 | 85 | 65 | 0.0 | 2.0 | 0.00 | 0.00 | 0.00 | 33 | 1012.9 |
| 20260505181015 | 84 | 50 | 0.0 | 4.0 | 0.00 | 0.00 | 0.00 | 33 | 1012.9 |
| 20260505180510 | 86 | 4 | 1.0 | 7.0 | 0.00 | 0.00 | 0.00 | 32 | 1013.2 |
| 20260505180009 | 85 | 52 | 2.0 | 4.0 | 0.00 | 0.00 | 0.00 | 33 | 1013.2 |
| 20260505175503 | 85 | 12 | 3.0 | 3.0 | 0.00 | 0.00 | 0.00 | 31 | 1012.9 |
| 20260505175000 | 84 | 307 | 2.0 | 6.0 | 0.00 | 0.00 | 0.00 | 33 | 1012.9 |
| 20260505174457 | 84 | 53 | 1.0 | 2.0 | 0.00 | 0.00 | 0.00 | 36 | 1012.9 |
| 20260505173953 | 83 | 13 | 1.0 | 4.0 | 0.00 | 0.00 | 0.00 | 35 | 1012.9 |
| 20260505173450 | 84 | 349 | 0.0 | 2.0 | 0.00 | 0.00 | 0.00 | 36 | 1012.9 |
| 20260505172947 | 82 | 75 | 1.0 | 9.0 | 0.00 | 0.00 | 0.00 | 37 | 1012.9 |
| 20260505172445 | 82 | 321 | 0.0 | 7.0 | 0.00 | 0.00 | 0.00 | 43 | 1012.6 |
| 20260505171944 | 82 | 355 | 0.0 | 3.0 | 0.00 | 0.00 | 0.00 | 45 | 1012.9 |
| 20260505171442 | 82 | 300 | 2.0 | 3.0 | 0.00 | 0.00 | 0.00 | 45 | 1012.9 |
| 20260505170938 | 82 | 309 | 1.0 | 4.0 | 0.00 | 0.00 | 0.00 | 47 | 1012.9 |
| 20260505170435 | 83 | 92 | 0.0 | 2.0 | 0.00 | 0.00 | 0.00 | 46 | 1012.9 |
| 20260505165930 | 83 | 280 | 0.0 | 2.0 | 0.00 | 0.00 | 0.00 | 43 | 1012.6 |
| 20260505165427 | 83 | 350 | 2.0 | 3.0 | 0.00 | 0.00 | 0.00 | 39 | 1012.9 |
| 20260505164922 | 82 | 339 | 2.0 | 3.0 | 0.00 | 0.00 | 0.00 | 46 | 1012.9 |
| 20260505164419 | 83 | 57 | 0.0 | 1.0 | 0.00 | 0.00 | 0.00 | 43 | 1012.6 |
| 20260505163917 | 83 | 78 | 3.0 | 3.0 | 0.00 | 0.00 | 0.00 | 42 | 1012.6 |
| 20260505163416 | 83 | 52 | 3.0 | 4.0 | 0.00 | 0.00 | 0.00 | 38 | 1012.6 |
| 20260505162914 | 83 | 333 | 1.0 | 3.0 | 0.00 | 0.00 | 0.00 | 40 | 1012.6 |
| 20260505162410 | 82 | 13 | 1.0 | 6.0 | 0.00 | 0.00 | 0.00 | 41 | 1012.9 |
| 20260505161907 | 83 | 53 | 2.0 | 2.0 | 0.00 | 0.00 | 0.00 | 38 | 1012.6 |
| 20260505161404 | 83 | 73 | 0.0 | 0.0 | 0.00 | 0.00 | 0.00 | 40 | 1012.9 |
| 20260505160901 | 82 | 68 | 2.0 | 4.0 | 0.00 | 0.00 | 0.00 | 41 | 1012.6 |
| 20260505160359 | 82 | 35 | 1.0 | 3.0 | 0.00 | 0.00 | 0.00 | 41 | 1012.6 |
| 20260505153337 | 81 | 312 | 2.0 | 2.0 | 0.00 | 0.00 | 0.00 | 43 | 1011.9 |
| 20260505152835 | 81 | 3 | 1.0 | 2.0 | 0.00 | 0.00 | 0.00 | 44 | 1011.9 |
| 20260505152331 | 79 | 315 | 4.0 | 4.0 | 0.00 | 0.00 | 0.00 | 44 | 1011.9 |
| 20260505151826 | 79 | 309 | 2.0 | 3.0 | 0.00 | 0.00 | 0.00 | 45 | 1011.9 |
| 20260505151323 | 80 | 81 | 0.0 | 2.0 | 0.00 | 0.00 | 0.00 | 44 | 1011.5 |
| 20260505150820 | 80 | 63 | 0.0 | 0.0 | 0.00 | 0.00 | 0.00 | 43 | 1011.1 |
| 20260505150317 | 78 | 32 | 0.0 | 0.0 | 0.00 | 0.00 | 0.00 | 46 | 1011.1 |
| 20260505140241 | 75 | 86 | 0.0 | 0.0 | 0.00 | 0.00 | 0.00 | 49 | 1010.1 |
| 20260505130205 | 71 | 85 | 0.0 | 3.0 | 0.00 | 0.00 | 0.00 | 54 | 1009.4 |
| 20260505124655 | 69 | 60 | 1.0 | 2.0 | 0.00 | 0.00 | 0.00 | 57 | 1009.1 |
| 20260505124151 | 69 | 92 | 0.0 | 3.0 | 0.00 | 0.00 | 0.00 | 58 | 1009.4 |
| 20260505123647 | 69 | 345 | 0.0 | 2.0 | 0.00 | 0.00 | 0.00 | 56 | 1009.4 |
| 20260505123145 | 68 | 303 | 2.0 | 4.0 | 0.00 | 0.00 | 0.00 | 58 | 1009.4 |
| 20260505122641 | 67 | 42 | 1.0 | 3.0 | 0.00 | 0.00 | 0.00 | 58 | 1009.1 |
| 20260505122138 | 67 | 327 | 2.0 | 2.0 | 0.00 | 0.00 | 0.00 | 59 | 1009.1 |
| 20260505121635 | 67 | 86 | 0.0 | 2.0 | 0.00 | 0.00 | 0.00 | 59 | 1009.1 |
| 20260505121132 | 67 | 89 | 2.0 | 2.0 | 0.00 | 0.00 | 0.00 | 59 | 1008.7 |
| 20260505120627 | 66 | 80 | 0.0 | 2.0 | 0.00 | 0.00 | 0.00 | 60 | 1009.1 |
| 20260505120124 | 66 | 89 | 0.0 | 2.0 | 0.00 | 0.00 | 0.00 | 60 | 1008.7 |
| 20260505115618 | 65 | 55 | 0.0 | 2.0 | 0.00 | 0.00 | 0.00 | 60 | 1009.1 |
| 20260505115116 | 65 | 59 | 0.0 | 2.0 | 0.00 | 0.00 | 0.00 | 60 | 1008.7 |
| 20260505114612 | 65 | 123 | 1.0 | 2.0 | 0.00 | 0.00 | 0.00 | 61 | 1008.7 |
| 20260505114109 | 64 | 13 | 1.0 | 6.0 | 0.00 | 0.00 | 0.00 | 60 | 1008.7 |
| 20260505113605 | 64 | 75 | 2.0 | 3.0 | 0.00 | 0.00 | 0.00 | 60 | 1008.7 |
| 20260505113102 | 64 | 64 | 1.0 | 2.0 | 0.00 | 0.00 | 0.00 | 61 | 1008.7 |
| 20260505112558 | 64 | 85 | 1.0 | 2.0 | 0.00 | 0.00 | 0.00 | 62 | 1008.7 |
| 20260505112056 | 64 | 75 | 0.0 | 0.0 | 0.00 | 0.00 | 0.00 | 62 | 1008.7 |
| 20260505111550 | 64 | 32 | 0.0 | 2.0 | 0.00 | 0.00 | 0.00 | 62 | 1008.4 |
| 20260505111046 | 64 | 72 | 1.0 | 2.0 | 0.00 | 0.00 | 0.00 | 61 | 1009.1 |
| 20260505110543 | 63 | 336 | 1.0 | 2.0 | 0.00 | 0.00 | 0.00 | 62 | 1008.7 |
| 20260505102015 | 62 | 51 | 1.0 | 4.0 | 0.00 | 0.00 | 0.00 | 61 | 1008.7 |
| 20260505101514 | 62 | 11 | 3.0 | 7.0 | 0.00 | 0.00 | 0.00 | 62 | 1008.4 |
| 20260505101010 | 62 | 35 | 0.0 | 3.0 | 0.00 | 0.00 | 0.00 | 62 | 1008.7 |
| 20260505100507 | 62 | 330 | 2.0 | 3.0 | 0.00 | 0.00 | 0.00 | 61 | 1008.7 |
| 20260505100004 | 62 | 62 | 1.0 | 2.0 | 0.00 | 0.00 | 0.00 | 61 | 1008.7 |
| 20260505095500 | 62 | 336 | 1.0 | 3.0 | 0.00 | 0.00 | 0.00 | 61 | 1008.7 |
| 20260505094956 | 62 | 88 | 2.0 | 2.0 | 0.00 | 0.00 | 0.00 | 62 | 1008.7 |
| 20260505094453 | 62 | 120 | 2.0 | 4.0 | 0.00 | 0.00 | 0.00 | 61 | 1008.7 |
| 20260505093949 | 62 | 77 | 0.0 | 2.0 | 0.00 | 0.00 | 0.00 | 62 | 1008.7 |
| 20260505093446 | 62 | 59 | 0.0 | 2.0 | 0.00 | 0.00 | 0.00 | 62 | 1008.7 |
| 20260505092943 | 62 | 82 | 1.0 | 2.0 | 0.00 | 0.00 | 0.00 | 62 | 1008.7 |
| 20260505092441 | 62 | 25 | 1.0 | 2.0 | 0.00 | 0.00 | 0.00 | 62 | 1008.7 |
| 20260505091938 | 62 | 82 | 1.0 | 2.0 | 0.00 | 0.00 | 0.00 | 62 | 1008.7 |
| 20260505091436 | 62 | 63 | 0.0 | 2.0 | 0.00 | 0.00 | 0.00 | 62 | 1008.7 |
| 20260505090933 | 62 | 55 | 0.0 | 4.0 | 0.00 | 0.00 | 0.00 | 62 | 1008.7 |
| 20260505090431 | 62 | 303 | 2.0 | 3.0 | 0.00 | 0.00 | 0.00 | 61 | 1008.7 |
| 20260505085928 | 63 | 341 | 2.0 | 2.0 | 0.00 | 0.00 | 0.00 | 62 | 1008.7 |
| 20260505085426 | 63 | 84 | 0.0 | 1.0 | 0.00 | 0.00 | 0.00 | 62 | 1008.4 |
| 20260505084924 | 63 | 3 | 1.0 | 3.0 | 0.00 | 0.00 | 0.00 | 61 | 1008.7 |
| 20260505084422 | 63 | 299 | 2.0 | 2.0 | 0.00 | 0.00 | 0.00 | 62 | 1008.7 |
| 20260505083920 | 63 | 40 | 2.0 | 3.0 | 0.00 | 0.00 | 0.00 | 61 | 1009.1 |
| 20260505083417 | 63 | 335 | 1.0 | 2.0 | 0.00 | 0.00 | 0.00 | 62 | 1008.7 |
| 20260505082913 | 63 | 80 | 2.0 | 4.0 | 0.00 | 0.00 | 0.00 | 62 | 1009.1 |
| 20260505082409 | 63 | 70 | 1.0 | 4.0 | 0.00 | 0.00 | 0.00 | 61 | 1009.1 |
| 20260505081907 | 63 | 162 | 2.0 | 6.0 | 0.00 | 0.00 | 0.00 | 61 | 1009.1 |
| 20260505081403 | 63 | 334 | 2.0 | 2.0 | 0.00 | 0.00 | 0.00 | 62 | 1009.1 |
| 20260505080900 | 63 | 19 | 1.0 | 8.0 | 0.00 | 0.00 | 0.00 | 61 | 1009.1 |
| 20260505080355 | 63 | 2 | 0.0 | 4.0 | 0.00 | 0.00 | 0.00 | 62 | 1009.1 |
| 20260505075851 | 62 | 63 | 2.0 | 2.0 | 0.00 | 0.00 | 0.00 | 64 | 1009.1 |
| 20260505075348 | 62 | 74 | 0.0 | 3.0 | 0.00 | 0.00 | 0.00 | 64 | 1009.1 |
| 20260505074845 | 62 | 43 | 1.0 | 3.0 | 0.00 | 0.00 | 0.00 | 64 | 1009.1 |
| 20260505074342 | 62 | 59 | 1.0 | 3.0 | 0.00 | 0.00 | 0.00 | 64 | 1009.1 |
| 20260505073840 | 62 | 336 | 2.0 | 2.0 | 0.00 | 0.00 | 0.00 | 65 | 1009.1 |
| 20260505073338 | 62 | 332 | 2.0 | 2.0 | 0.00 | 0.00 | 0.00 | 66 | 1009.1 |
| 20260505072834 | 62 | 68 | 2.0 | 6.0 | 0.00 | 0.00 | 0.00 | 66 | 1009.1 |
| 20260505072331 | 61 | 341 | 2.0 | 6.0 | 0.00 | 0.00 | 0.00 | 67 | 1009.1 |
| 20260505071827 | 61 | 14 | 1.0 | 2.0 | 0.00 | 0.00 | 0.00 | 69 | 1009.1 |
| 20260505071323 | 61 | 35 | 1.0 | 2.0 | 0.00 | 0.00 | 0.00 | 69 | 1009.4 |
| 20260505070822 | 60 | 51 | 1.0 | 2.0 | 0.00 | 0.00 | 0.00 | 70 | 1009.1 |
| 20260505070318 | 60 | 42 | 0.0 | 2.0 | 0.00 | 0.00 | 0.00 | 70 | 1009.4 |
| 20260505065813 | 61 | 40 | 1.0 | 3.0 | 0.00 | 0.00 | 0.00 | 69 | 1009.4 |
| 20260505065310 | 61 | 79 | 0.0 | 2.0 | 0.00 | 0.00 | 0.00 | 68 | 1009.4 |
| 20260505064807 | 61 | 60 | 0.0 | 2.0 | 0.00 | 0.00 | 0.00 | 68 | 1009.4 |
| 20260505064304 | 61 | 25 | 1.0 | 3.0 | 0.00 | 0.00 | 0.00 | 68 | 1009.4 |
| 20260505063803 | 61 | 58 | 0.0 | 2.0 | 0.00 | 0.00 | 0.00 | 68 | 1009.4 |
| 20260505063258 | 61 | 19 | 1.0 | 2.0 | 0.00 | 0.00 | 0.00 | 67 | 1009.4 |
| 20260505062755 | 62 | 39 | 1.0 | 2.0 | 0.00 | 0.00 | 0.00 | 66 | 1009.7 |
| 20260505062252 | 62 | 51 | 2.0 | 2.0 | 0.00 | 0.00 | 0.00 | 65 | 1009.4 |
| 20260505061749 | 63 | 84 | 1.0 | 2.0 | 0.00 | 0.00 | 0.00 | 62 | 1009.4 |
| 20260505061247 | 63 | 68 | 0.0 | 2.0 | 0.00 | 0.00 | 0.00 | 61 | 1009.4 |
| 20260505060744 | 63 | 52 | 2.0 | 2.0 | 0.00 | 0.00 | 0.00 | 62 | 1009.4 |
| 20260505060241 | 63 | 9 | 1.0 | 2.0 | 0.00 | 0.00 | 0.00 | 63 | 1009.4 |
| 20260505055736 | 63 | 66 | 1.0 | 2.0 | 0.00 | 0.00 | 0.00 | 62 | 1009.7 |
| 20260505055233 | 63 | 358 | 1.0 | 2.0 | 0.00 | 0.00 | 0.00 | 62 | 1009.7 |
| 20260505054730 | 63 | 51 | 1.0 | 2.0 | 0.00 | 0.00 | 0.00 | 61 | 1009.7 |
| 20260505054228 | 63 | 325 | 1.0 | 2.0 | 0.00 | 0.00 | 0.00 | 61 | 1009.7 |
| 20260505053726 | 63 | 18 | 2.0 | 2.0 | 0.00 | 0.00 | 0.00 | 61 | 1009.7 |
| 20260505053222 | 63 | 42 | 1.0 | 4.0 | 0.00 | 0.00 | 0.00 | 61 | 1009.7 |
| 20260505052720 | 63 | 317 | 1.0 | 2.0 | 0.00 | 0.00 | 0.00 | 62 | 1009.7 |
| 20260505052216 | 63 | 73 | 2.0 | 2.0 | 0.00 | 0.00 | 0.00 | 63 | 1010.1 |
| 20260505051714 | 63 | 339 | 1.0 | 2.0 | 0.00 | 0.00 | 0.00 | 63 | 1009.7 |
| 20260505051212 | 63 | 29 | 1.0 | 2.0 | 0.00 | 0.00 | 0.00 | 64 | 1009.7 |
| 20260505050709 | 63 | 61 | 2.0 | 3.0 | 0.00 | 0.00 | 0.00 | 63 | 1009.7 |
| 20260505050207 | 63 | 32 | 2.0 | 2.0 | 0.00 | 0.00 | 0.00 | 63 | 1009.7 |
| 20260505041637 | 63 | 352 | 1.0 | 4.0 | 0.00 | 0.00 | 0.00 | 68 | 1010.1 |
| 20260505041134 | 63 | 15 | 1.0 | 3.0 | 0.00 | 0.00 | 0.00 | 67 | 1010.1 |
| 20260505040631 | 63 | 33 | 2.0 | 2.0 | 0.00 | 0.00 | 0.00 | 68 | 1009.7 |
| 20260505040128 | 63 | 53 | 0.0 | 2.0 | 0.00 | 0.00 | 0.00 | 68 | 1010.1 |
| 20260505035624 | 63 | 50 | 1.0 | 2.0 | 0.00 | 0.00 | 0.00 | 68 | 1010.4 |
| 20260505035121 | 63 | 50 | 2.0 | 2.0 | 0.00 | 0.00 | 0.00 | 69 | 1010.1 |
| 20260505034617 | 63 | 23 | 1.0 | 2.0 | 0.00 | 0.00 | 0.00 | 69 | 1010.1 |
| 20260505034114 | 63 | 18 | 2.0 | 2.0 | 0.00 | 0.00 | 0.00 | 69 | 1010.1 |
| 20260505033611 | 63 | 347 | 2.0 | 2.0 | 0.00 | 0.00 | 0.00 | 69 | 1010.4 |
| 20260505033110 | 64 | 9 | 1.0 | 2.0 | 0.00 | 0.00 | 0.00 | 69 | 1010.1 |
| 20260505032607 | 64 | 314 | 3.0 | 4.0 | 0.00 | 0.00 | 0.00 | 69 | 1010.4 |
| 20260505032103 | 63 | 331 | 1.0 | 2.0 | 0.00 | 0.00 | 0.00 | 71 | 1010.4 |
| 20260505031601 | 63 | 42 | 1.0 | 4.0 | 0.00 | 0.00 | 0.00 | 70 | 1010.4 |
| 20260505031057 | 64 | 326 | 2.0 | 4.0 | 0.00 | 0.00 | 0.00 | 70 | 1010.4 |
| 20260505030554 | 64 | 2 | 2.0 | 3.0 | 0.00 | 0.00 | 0.00 | 70 | 1010.4 |
| 20260505030050 | 64 | 30 | 2.0 | 4.0 | 0.00 | 0.00 | 0.00 | 70 | 1010.4 |
| 20260505025546 | 64 | 47 | 1.0 | 2.0 | 0.00 | 0.00 | 0.00 | 70 | 1010.8 |
| 20260505025045 | 64 | 341 | 2.0 | 6.0 | 0.00 | 0.00 | 0.00 | 69 | 1010.8 |
| 20260505024542 | 64 | 354 | 0.0 | 4.0 | 0.00 | 0.00 | 0.00 | 69 | 1010.8 |
| 20260505024039 | 64 | 331 | 1.0 | 3.0 | 0.00 | 0.00 | 0.00 | 68 | 1010.8 |
| 20260505023536 | 64 | 46 | 1.0 | 2.0 | 0.00 | 0.00 | 0.00 | 68 | 1010.8 |
| 20260505023033 | 64 | 317 | 1.0 | 4.0 | 0.00 | 0.00 | 0.00 | 67 | 1010.8 |
| 20260505022531 | 64 | 38 | 1.0 | 3.0 | 0.00 | 0.00 | 0.00 | 66 | 1010.8 |
| 20260505022028 | 64 | 61 | 1.0 | 3.0 | 0.00 | 0.00 | 0.00 | 65 | 1011.1 |
| 20260505021524 | 65 | 358 | 2.0 | 4.0 | 0.00 | 0.00 | 0.00 | 64 | 1010.8 |
| 20260505021021 | 65 | 73 | 0.0 | 2.0 | 0.00 | 0.00 | 0.00 | 63 | 1010.8 |
| 20260505020515 | 65 | 70 | 0.0 | 3.0 | 0.00 | 0.00 | 0.00 | 62 | 1011.1 |
| 20260505020013 | 65 | 17 | 2.0 | 3.0 | 0.00 | 0.00 | 0.00 | 62 | 1011.1 |
| 20260505015510 | 65 | 17 | 2.0 | 2.0 | 0.00 | 0.00 | 0.00 | 61 | 1010.8 |
| 20260505015006 | 65 | 68 | 2.0 | 3.0 | 0.00 | 0.00 | 0.00 | 61 | 1011.1 |
| 20260505014503 | 65 | 16 | 2.0 | 2.0 | 0.00 | 0.00 | 0.00 | 61 | 1011.1 |
| 20260505014001 | 65 | 68 | 0.0 | 2.0 | 0.00 | 0.00 | 0.00 | 62 | 1011.1 |
| 20260505013457 | 65 | 338 | 2.0 | 2.0 | 0.00 | 0.00 | 0.00 | 62 | 1011.5 |
| 20260505012954 | 65 | 314 | 2.0 | 3.0 | 0.00 | 0.00 | 0.00 | 62 | 1011.1 |
| 20260505012453 | 65 | 27 | 1.0 | 2.0 | 0.00 | 0.00 | 0.00 | 63 | 1011.1 |
| 20260505011949 | 65 | 31 | 2.0 | 3.0 | 0.00 | 0.00 | 0.00 | 62 | 1011.1 |
| 20260505011445 | 65 | 81 | 0.0 | 3.0 | 0.00 | 0.00 | 0.00 | 63 | 1011.5 |
| 20260505010942 | 65 | 275 | 0.0 | 2.0 | 0.00 | 0.00 | 0.00 | 64 | 1011.5 |
| 20260505010438 | 65 | 79 | 1.0 | 2.0 | 0.00 | 0.00 | 0.00 | 63 | 1011.1 |
| 20260505005934 | 65 | 10 | 1.0 | 2.0 | 0.00 | 0.00 | 0.00 | 63 | 1011.5 |
| 20260505005431 | 65 | 352 | 2.0 | 3.0 | 0.00 | 0.00 | 0.00 | 62 | 1011.5 |
| 20260505004929 | 65 | 43 | 1.0 | 2.0 | 0.00 | 0.00 | 0.00 | 62 | 1011.5 |
| 20260505004425 | 65 | 30 | 0.0 | 2.0 | 0.00 | 0.00 | 0.00 | 62 | 1011.5 |
| 20260505003922 | 66 | 55 | 0.0 | 2.0 | 0.00 | 0.00 | 0.00 | 61 | 1011.5 |
| 20260505003419 | 66 | 35 | 1.0 | 2.0 | 0.00 | 0.00 | 0.00 | 61 | 1011.5 |
| 20260505002915 | 66 | 43 | 1.0 | 2.0 | 0.00 | 0.00 | 0.00 | 60 | 1011.5 |
| 20260505002412 | 66 | 73 | 0.0 | 2.0 | 0.00 | 0.00 | 0.00 | 60 | 1011.5 |
| 20260505001910 | 66 | 3 | 2.0 | 3.0 | 0.00 | 0.00 | 0.00 | 59 | 1011.5 |
| 20260505001408 | 66 | 27 | 1.0 | 2.0 | 0.00 | 0.00 | 0.00 | 59 | 1011.9 |
| 20260505000905 | 66 | 320 | 1.0 | 2.0 | 0.00 | 0.00 | 0.00 | 58 | 1011.9 |
| 20260505000403 | 67 | 46 | 0.0 | 3.0 | 0.00 | 0.00 | 0.00 | 57 | 1011.9 |
| 20260504235859 | 67 | 0 | 2.0 | 2.0 | 0.00 | 0.00 | 0.00 | 56 | 1011.5 |
| 20260504235356 | 67 | 343 | 3.0 | 4.0 | 0.00 | 0.00 | 0.00 | 55 | 1011.9 |
| 20260504234852 | 67 | 31 | 1.0 | 3.0 | 0.00 | 0.00 | 0.00 | 55 | 1011.9 |
| 20260504234350 | 68 | 326 | 0.0 | 3.0 | 0.00 | 0.00 | 0.00 | 54 | 1011.9 |
| 20260504233846 | 68 | 332 | 0.0 | 3.0 | 0.00 | 0.00 | 0.00 | 54 | 1012.2 |
| 20260504233342 | 68 | 334 | 0.0 | 2.0 | 0.00 | 0.00 | 0.00 | 53 | 1011.9 |
| 20260504232839 | 68 | 335 | 2.0 | 3.0 | 0.00 | 0.00 | 0.00 | 52 | 1011.9 |
| 20260504232336 | 69 | 54 | 0.0 | 4.0 | 0.00 | 0.00 | 0.00 | 50 | 1011.9 |
| 20260504231833 | 69 | 321 | 3.0 | 4.0 | 0.00 | 0.00 | 0.00 | 49 | 1011.9 |
| 20260504231329 | 69 | 191 | 3.0 | 4.0 | 0.00 | 0.00 | 0.00 | 48 | 1011.9 |
| 20260504230825 | 69 | 26 | 2.0 | 3.0 | 0.00 | 0.00 | 0.00 | 46 | 1011.9 |
| 20260504230324 | 69 | 323 | 2.0 | 7.0 | 0.00 | 0.00 | 0.00 | 47 | 1011.9 |
| 20260504225822 | 70 | 92 | 0.0 | 3.0 | 0.00 | 0.00 | 0.00 | 46 | 1011.9 |
| 20260504225318 | 71 | 206 | 0.0 | 8.0 | 0.00 | 0.00 | 0.00 | 44 | 1012.2 |
| 20260504224816 | 70 | 128 | 0.0 | 3.0 | 0.00 | 0.00 | 0.00 | 44 | 1011.9 |
| 20260504224312 | 71 | 308 | 2.0 | 6.0 | 0.00 | 0.00 | 0.00 | 44 | 1012.2 |
| 20260504223809 | 71 | 333 | 2.0 | 7.0 | 0.00 | 0.00 | 0.00 | 44 | 1011.9 |
| 20260504223304 | 71 | 322 | 3.0 | 10.0 | 0.00 | 0.00 | 0.00 | 44 | 1012.2 |
| 20260504222801 | 71 | 39 | 1.0 | 6.0 | 0.00 | 0.00 | 0.00 | 44 | 1012.2 |
| 20260504222258 | 72 | 123 | 2.0 | 4.0 | 0.00 | 0.00 | 0.00 | 43 | 1012.6 |
| 20260504221756 | 72 | 59 | 2.0 | 4.0 | 0.00 | 0.00 | 0.00 | 42 | 1012.6 |
| 20260504221253 | 72 | 305 | 2.0 | 7.0 | 0.00 | 0.00 | 0.00 | 42 | 1012.6 |
| 20260504220749 | 72 | 309 | 2.0 | 3.0 | 0.00 | 0.00 | 0.00 | 42 | 1012.6 |
| 20260504220247 | 73 | 308 | 5.0 | 8.0 | 0.00 | 0.00 | 0.00 | 42 | 1012.6 |
| 20260504215744 | 73 | 345 | 0.0 | 1.0 | 0.00 | 0.00 | 0.00 | 42 | 1012.6 |
| 20260504215240 | 73 | 72 | 0.0 | 3.0 | 0.00 | 0.00 | 0.00 | 42 | 1012.6 |
| 20260504214736 | 73 | 31 | 2.0 | 3.0 | 0.00 | 0.00 | 0.00 | 41 | 1012.6 |
| 20260504214233 | 73 | 38 | 1.0 | 3.0 | 0.00 | 0.00 | 0.00 | 41 | 1012.6 |
| 20260504213730 | 73 | 343 | 4.0 | 4.0 | 0.00 | 0.00 | 0.00 | 41 | 1012.9 |
| 20260504213225 | 74 | 302 | 2.0 | 3.0 | 0.00 | 0.00 | 0.00 | 41 | 1012.9 |
| 20260504212723 | 74 | 286 | 0.0 | 2.0 | 0.00 | 0.00 | 0.00 | 40 | 1012.6 |
| 20260504212214 | 73 | 282 | 1.0 | 4.0 | 0.00 | 0.00 | 0.00 | 40 | 1012.6 |
| 20260504211711 | 73 | 301 | 2.0 | 3.0 | 0.00 | 0.00 | 0.00 | 41 | 1012.9 |
| 20260504211208 | 73 | 326 | 2.0 | 6.0 | 0.00 | 0.00 | 0.00 | 41 | 1012.9 |
| 20260504210705 | 74 | 24 | 3.0 | 4.0 | 0.00 | 0.00 | 0.00 | 39 | 1012.9 |
| 20260504210202 | 73 | 61 | 0.0 | 4.0 | 0.00 | 0.00 | 0.00 | 39 | 1012.9 |
| 20260504205659 | 73 | 6 | 1.0 | 7.0 | 0.00 | 0.00 | 0.00 | 38 | 1012.9 |
| 20260504205156 | 74 | 313 | 2.0 | 4.0 | 0.00 | 0.00 | 0.00 | 39 | 1012.9 |
| 20260504204654 | 74 | 318 | 2.0 | 7.0 | 0.00 | 0.00 | 0.00 | 39 | 1012.9 |
| 20260504204153 | 73 | 318 | 1.0 | 3.0 | 0.00 | 0.00 | 0.00 | 40 | 1013.2 |
| 20260504203651 | 73 | 310 | 1.0 | 3.0 | 0.00 | 0.00 | 0.00 | 40 | 1012.9 |
| 20260504203148 | 74 | 281 | 2.0 | 6.0 | 0.00 | 0.00 | 0.00 | 38 | 1013.2 |
| 20260504202643 | 75 | 299 | 2.0 | 6.0 | 0.00 | 0.00 | 0.00 | 37 | 1013.2 |
| 20260504202140 | 74 | 15 | 1.0 | 2.0 | 0.00 | 0.00 | 0.00 | 37 | 1013.2 |
| 20260504201637 | 74 | 297 | 0.0 | 3.0 | 0.00 | 0.00 | 0.00 | 38 | 1013.2 |
| 20260504201135 | 75 | 43 | 2.0 | 2.0 | 0.00 | 0.00 | 0.00 | 38 | 1013.6 |
| 20260504200632 | 75 | 247 | 0.0 | 3.0 | 0.00 | 0.00 | 0.00 | 37 | 1013.6 |
| 20260504200128 | 74 | 36 | 2.0 | 4.0 | 0.00 | 0.00 | 0.00 | 38 | 1013.6 |
| 20260504195624 | 75 | 295 | 1.0 | 7.0 | 0.00 | 0.00 | 0.00 | 38 | 1013.6 |
| 20260504195121 | 75 | 351 | 0.0 | 3.0 | 0.00 | 0.00 | 0.00 | 37 | 1013.6 |
| 20260504194618 | 74 | 42 | 2.0 | 2.0 | 0.00 | 0.00 | 0.00 | 37 | 1013.6 |
| 20260504194114 | 74 | 291 | 1.0 | 3.0 | 0.00 | 0.00 | 0.00 | 37 | 1013.6 |
| 20260504193610 | 75 | 9 | 1.0 | 2.0 | 0.00 | 0.00 | 0.00 | 37 | 1013.9 |
| 20260504193109 | 74 | 17 | 0.0 | 2.0 | 0.00 | 0.00 | 0.00 | 37 | 1013.9 |
| 20260504192606 | 75 | 107 | 0.0 | 3.0 | 0.00 | 0.00 | 0.00 | 37 | 1013.9 |
| 20260504192104 | 74 | 293 | 0.0 | 3.0 | 0.00 | 0.00 | 0.00 | 38 | 1013.6 |
| 20260504191603 | 75 | 120 | 2.0 | 3.0 | 0.00 | 0.00 | 0.00 | 37 | 1014.2 |
| 20260504191058 | 75 | 313 | 4.0 | 6.0 | 0.00 | 0.00 | 0.00 | 36 | 1013.9 |
| 20260504190554 | 74 | 140 | 0.0 | 2.0 | 0.00 | 0.00 | 0.00 | 37 | 1014.2 |
| 20260504190050 | 73 | 38 | 0.0 | 2.0 | 0.00 | 0.00 | 0.00 | 38 | 1014.2 |
| 20260504185548 | 74 | 346 | 4.0 | 4.0 | 0.00 | 0.00 | 0.00 | 36 | 1013.9 |
| 20260504185044 | 73 | 335 | 2.0 | 3.0 | 0.00 | 0.00 | 0.00 | 38 | 1014.2 |
| 20260504184540 | 73 | 179 | 0.0 | 3.0 | 0.00 | 0.00 | 0.00 | 37 | 1014.2 |
| 20260504184035 | 73 | 215 | 1.0 | 2.0 | 0.00 | 0.00 | 0.00 | 37 | 1014.2 |
| 20260504183533 | 73 | 327 | 1.0 | 3.0 | 0.00 | 0.00 | 0.00 | 37 | 1014.2 |